Weather History for Iliamna, AK

Change the Weather History Date:

Tuesday, January 7, 2014

  Actual Average Record
Temperature  
Mean Temperature 38 °F -  
Max Temperature 39 °F 23 °F 46 °F (1942)
Min Temperature 37 °F 13 °F -29 °F (1997)
Degree Days  
Heating Degree Days 27    
Moisture  
Dew Point 33 °F    
Average Humidity 79    
Maximum Humidity 89    
Minimum Humidity 68    
Precipitation  
Precipitation 0.16 in - - ()
Sea Level Pressure  
Sea Level Pressure 29.40 in    
Wind  
Wind Speed 19 mph (East)    
Max Wind Speed 28 mph    
Max Gust Speed 37 mph    
Visibility 10 miles    
Events      
Averages and records for this station are not official NWS values.
T = Trace of Precipitation, MM = Missing Value Source: NWS Daily Summary

Daily Weather History Graph

Daily Weather History Graph

Search for Another Location

Airport:

Trip Planner

Search our weather history database for the weather conditions in past years. The results will help you decide how hot, cold, wet, or windy it might be!

Date:

Astronomy

Jan. 07, 2014 Rise Set
Actual Time 10:14 AM AKST 4:37 PM AKST
Civil Twilight 9:20 AM AKST 5:32 PM AKST
Nautical Twilight 8:25 AM AKST 6:26 PM AKST
Astronomical Twilight 7:35 AM AKST 7:17 PM AKST
Moon 12:10 PM AKST (1/7) 1:14 AM AKST (1/7)
Length of Visible Light 8h 11m
Length of Day
6h 22m
Waxing Crescent, 47% of the Moon is Illuminated
Jan 7
Waxing Crescent
Jan 7
First Quarter
Jan 15
Full
Jan 23
Last Quarter
Jan 30
New

Hourly Weather History & Observations

Time (AKST) Temp. Windchill Dew Point Humidity Pressure Visibility Wind Dir Wind Speed Gust Speed Precip Events Conditions
12:53 AM 39.0 °F 27.6 °F 34.0 °F 82% 29.50 in 10.0 mi East 27.6 mph 34.5 mph N/A   Overcast
1:53 AM 37.9 °F 27.6 °F 34.0 °F 86% 29.49 in 10.0 mi East 20.7 mph 31.1 mph N/A   Overcast
3:53 AM 39.0 °F 27.8 °F 34.0 °F 82% 29.48 in 10.0 mi East 26.5 mph 36.8 mph N/A   Overcast
4:53 AM 39.0 °F 29.6 °F 34.0 °F 82% 29.49 in 10.0 mi East 18.4 mph 26.5 mph N/A   Overcast
5:53 AM 37.9 °F 28.5 °F 34.0 °F 86% 29.47 in 10.0 mi East 17.3 mph 24.2 mph N/A   Overcast
6:53 AM 37.9 °F 30.9 °F 35.1 °F 89% 29.46 in 10.0 mi East 10.4 mph 19.6 mph N/A   Overcast
7:53 AM 39.0 °F 32.3 °F 34.0 °F 82% 29.45 in 10.0 mi East 10.4 mph - N/A   Overcast
8:53 AM 39.9 °F 31.4 °F 33.1 °F 77% 29.44 in 10.0 mi East 16.1 mph 24.2 mph N/A   Mostly Cloudy
9:53 AM 37.9 °F 29.2 °F 34.0 °F 86% 29.43 in 10.0 mi East 15.0 mph - N/A   Overcast
10:53 AM 37.9 °F 28.9 °F 34.0 °F 86% 29.42 in 10.0 mi East 16.1 mph 23.0 mph N/A   Overcast
11:53 AM 39.0 °F 28.0 °F 34.0 °F 82% 29.39 in 10.0 mi East 25.3 mph 33.4 mph N/A   Mostly Cloudy
12:53 PM 39.0 °F 28.8 °F 33.1 °F 79% 29.37 in 10.0 mi East 21.9 mph 34.5 mph N/A   Mostly Cloudy
1:53 PM 39.9 °F 30.5 °F 33.1 °F 77% 29.37 in 10.0 mi East 19.6 mph 28.8 mph N/A   Mostly Cloudy
2:53 PM 39.9 °F 31.1 °F 33.1 °F 77% 29.36 in 10.0 mi East 17.3 mph 24.2 mph N/A   Scattered Clouds
3:53 PM 39.9 °F 30.5 °F 33.1 °F 77% 29.35 in 10.0 mi East 19.6 mph 26.5 mph N/A   Partly Cloudy
4:53 PM 39.9 °F 31.1 °F 33.1 °F 77% 29.34 in 10.0 mi East 17.3 mph 25.3 mph N/A   Clear
5:53 PM 39.0 °F 30.6 °F 33.1 °F 79% 29.35 in 10.0 mi East 15.0 mph 20.7 mph N/A   Overcast
6:53 PM 39.0 °F 30.3 °F 33.1 °F 79% 29.34 in 10.0 mi East 16.1 mph - N/A   Mostly Cloudy
7:53 PM 39.0 °F 32.3 °F 32.0 °F 76% 29.34 in 10.0 mi East 10.4 mph - N/A   Overcast
8:53 PM 37.9 °F 32.1 °F 32.0 °F 79% 29.34 in 10.0 mi East 8.1 mph - N/A   Scattered Clouds
9:53 PM 37.9 °F 33.5 °F 30.9 °F 76% 29.33 in 10.0 mi East 5.8 mph - N/A   Mostly Cloudy
10:53 PM 37.9 °F - 32.0 °F 79% 29.33 in 10.0 mi Calm Calm - N/A   Scattered Clouds
11:53 PM 37.9 °F 30.0 °F 33.1 °F 83% 29.34 in 10.0 mi ESE 12.7 mph - N/A   Overcast